Flag Weather past 2 weeks in Kuching, Malaysia

Now
75 °F

Broken clouds.


Feels Like: 74 °F
Forecast: 77 / 88 °F
Wind: 1 mph from West

Location: Kuching Airport

Current Time: Nov 26, 2014 at 7:47:41 AM

Latest Report: Nov 26, 2014 at 7:00 AM


Visibility: N/A

Pressure: 29.77 "Hg

Humidity: 94%

Dew point: 73 °F

Location of KuchingLocation

Historic Weather in Kuching — Graph

°F

Kuching temperature yesterday

Maximum temperature yesterday: 88 °F (at 11:00 AM)
Minimum temperature yesterday: 75 °F (at 4:00 AM)
Average temperature yesterday: 81 °F

Past Weeks' High & Low Weather Summary

 TemperatureHumidityPressure
High91 °F (Nov 11, 2:30 PM)100% (Nov 12, 5:30 AM)29.89 "Hg (Nov 12, 5:30 AM)
Low72 °F (Nov 13, 6:30 AM)56% (Nov 13, 12:30 PM)29.68 "Hg (Nov 16, 3:30 PM)
Average80 °F85%29.80 "Hg
* Reported Nov 11 6:00 AM — Nov 26 6:30 AM, Kuching, Weather by CustomWeather, © 2014

Note: Actual official high and low records may vary slightly from our data, if they occured in-between our weather recording intervals... More about our weather records

Advertising

Kuching weather history for previous 24 hours

 ConditionsComfort  
Time TempWeatherWind HumidityBarometerVisibility
6:30 AM
Nov 26
75 °FBroken clouds.1 mph94%29.77 "HgN/A
6:00 AM75 °FPartly cloudy.1 mph94%29.77 "HgN/A
5:30 AM75 °FPartly cloudy.2 mph94%29.74 "HgN/A
4:30 AM75 °FPartly cloudy.No wind94%29.74 "HgN/A
4:00 AM75 °FPartly cloudy.2 mph94%29.74 "HgN/A
3:30 AM77 °FPartly cloudy.5 mph89%29.74 "HgN/A
3:00 AM77 °FPartly cloudy.3 mph89%29.74 "HgN/A
2:30 AM77 °FPartly cloudy.5 mph89%29.74 "HgN/A
2:00 AM77 °FPartly cloudy.3 mph89%29.74 "HgN/A
1:30 AM77 °FPartly cloudy.3 mph89%29.77 "HgN/A
1:00 AM77 °FPartly cloudy.3 mph89%29.77 "HgN/A
12:30 AM77 °FPartly cloudy.6 mph89%29.77 "HgN/A
12:00 AM77 °FPartly cloudy.6 mph94%29.80 "HgN/A
11:30 PM
Nov 25
77 °FPartly cloudy.3 mph94%29.80 "HgN/A
11:00 PM77 °FPartly cloudy.5 mph94%29.80 "HgN/A
10:30 PM79 °FPartly cloudy.5 mph89%29.80 "HgN/A
10:00 PM79 °FPartly cloudy.5 mph89%29.80 "HgN/A
9:30 PM79 °FPartly cloudy.10 mph89%29.80 "HgN/A
9:00 PM81 °FPartly cloudy.6 mph89%29.80 "HgN/A
8:30 PM81 °FPartly cloudy.6 mph89%29.77 "HgN/A
8:00 PM82 °FPartly cloudy.3 mph84%29.77 "HgN/A
7:30 PM82 °FPartly cloudy.3 mph84%29.77 "HgN/A
7:00 PM82 °FPartly cloudy.3 mph84%29.74 "HgN/A
6:00 PM84 °FBroken clouds.9 mph79%29.74 "HgN/A
5:30 PM84 °FBroken clouds.9 mph79%29.71 "HgN/A
5:00 PM86 °FBroken clouds.7 mph75%29.71 "HgN/A
4:30 PM86 °FBroken clouds.7 mph75%29.71 "HgN/A
4:00 PM86 °FBroken clouds.2 mph70%29.68 "HgN/A
3:30 PM86 °FBroken clouds.8 mph75%29.71 "HgN/A
3:00 PM88 °FBroken clouds.8 mph75%29.71 "HgN/A
2:30 PM86 °FBroken clouds.10 mph79%29.71 "HgN/A
2:00 PM84 °FSprinkles. Broken clouds.12 mph84%29.74 "Hg5 mi
1:30 PM88 °FSprinkles. Broken clouds.3 mph75%29.74 "Hg5 mi
1:00 PM88 °FBroken clouds.3 mph75%29.77 "HgN/A
12:30 PM88 °FBroken clouds.5 mph75%29.77 "HgN/A
12:00 PM88 °FBroken clouds.3 mph70%29.80 "HgN/A
11:30 AM88 °FBroken clouds.3 mph70%29.80 "HgN/A
11:00 AM88 °FBroken clouds.2 mph70%29.80 "HgN/A
10:30 AM86 °FBroken clouds.3 mph75%29.83 "HgN/A
10:00 AM86 °FBroken clouds.2 mph75%29.83 "HgN/A
9:30 AM84 °FBroken clouds.2 mph79%29.83 "HgN/A
9:00 AM82 °FBroken clouds.3 mph84%29.83 "HgN/A
8:30 AM81 °FBroken clouds.5 mph84%29.83 "HgN/A
7:30 AM77 °FPartly sunny.5 mph94%29.80 "HgN/A
7:00 AM75 °FBroken clouds.5 mph94%29.80 "HgN/A
Weather by CustomWeather, © 2014

See weather overviewHow to use our weather pages